Wind_Speed
33 33 33 33 33 34 36 35 34 31 30 28 29 32 33 32 31 31 31 31 32 33 34 36 37 39 40 41 43 44 46 47 48 49 50 50 51 52 53 54 54 55 56 57
34 34 35 35 34 34 34 34 33 32 30 27 31 33 33 33 33 33 33 34 34 35 36 37 38 40 41 43 44 46 47 48 49 50 51 52 53 53 54 54 55 56 57 58
35 34 36 37 34 34 34 33 33 34 30 30 33 34 34 34 35 35 35 37 37 38 39 40 40 41 43 44 45 47 48 49 50 51 52 52 53 54 54 55 56 57 58 59
37 36 40 34 32 33 34 33 33 33 32 32 34 35 36 35 36 37 38 40 41 41 41 42 42 43 44 46 46 48 49 49 51 51 52 53 53 54 55 56 57 58 59 61
39 38 37 35 32 31 33 33 33 34 33 34 35 36 36 36 38 39 40 41 42 42 43 43 44 45 46 47 48 49 49 50 51 52 52 53 54 55 56 57 58 59 61 63
40 40 38 33 32 33 35 35 32 34 35 36 37 37 36 38 39 40 41 41 42 43 44 44 45 45 46 47 48 48 49 50 51 52 53 54 54 55 56 57 59 60 62 65
40 39 38 35 33 33 36 33 32 35 36 36 37 38 38 39 40 40 41 41 42 42 43 43 44 45 46 46 47 48 49 50 51 52 53 54 55 56 57 59 60 62 65 67
39 40 37 33 34 34 34 34 35 35 36 37 38 38 38 39 40 40 40 41 41 42 42 43 44 45 46 47 48 49 50 51 51 52 53 54 55 57 58 61 62 65 67 69
38 37 34 34 34 35 35 35 35 36 36 37 37 38 38 39 39 39 40 40 41 41 42 43 45 46 47 48 48 49 49 50 51 52 53 55 56 58 60 63 65 68 70 72
38 37 36 35 35 35 36 36 36 36 36 36 36 37 37 38 38 39 40 40 41 42 43 44 45 46 46 47 48 49 49 50 51 53 54 55 57 60 62 65 68 71 73 75
37 36 36 36 35 36 36 37 37 37 37 37 37 37 37 38 39 39 40 41 43 44 44 44 45 46 47 48 48 49 50 51 52 53 54 56 59 62 65 68 72 75 77 79
36 35 37 36 37 38 38 37 37 37 37 37 37 37 38 38 39 41 41 42 43 44 44 45 46 46 47 48 48 49 50 51 52 54 56 59 61 64 67 71 74 77 80 82
37 36 37 36 37 37 38 38 38 37 37 37 38 39 40 40 41 42 42 43 43 44 44 45 45 46 47 48 48 49 50 52 54 56 59 62 65 68 71 73 76 78 80 81
36 36 36 36 36 36 37 37 37 38 38 39 39 40 40 41 42 42 43 43 43 43 44 44 45 46 47 48 49 50 52 54 57 59 62 66 69 73 76 77 77 77 78 79
36 36 36 36 36 36 36 37 37 38 38 38 39 39 40 41 42 42 42 42 43 43 44 44 45 46 47 48 50 52 54 57 60 63 66 70 74 76 78 79 79 79 77 76
35 35 35 36 36 36 37 37 38 38 38 38 39 40 40 41 41 41 41 42 42 43 43 44 45 47 48 50 52 55 57 60 64 67 71 74 77 78 79 79 79 78 76 73
35 34 34 34 35 35 36 37 37 38 38 39 39 40 40 40 40 41 41 41 42 42 44 45 47 48 50 53 55 58 61 64 68 72 75 77 78 79 79 79 78 76 73 69
34 34 34 34 35 35 35 36 36 37 38 38 38 38 39 39 39 40 40 41 42 44 45 47 49 51 53 56 59 62 65 69 72 75 77 78 79 79 79 78 75 72 68 64
34 34 34 34 34 35 35 36 36 36 36 37 37 38 38 39 39 40 41 42 43 45 47 49 51 54 56 60 63 66 70 72 75 77 78 78 78 77 76 73 70 67 64 61
33 33 34 34 34 35 35 35 35 36 36 37 37 37 38 39 40 41 42 43 45 48 50 52 55 58 61 64 67 70 73 75 77 78 78 77 76 74 71 68 65 63 60 57
33 34 34 34 35 35 35 35 35 36 36 36 37 37 38 40 41 42 43 45 48 50 53 56 59 62 65 68 71 73 75 77 78 78 76 74 72 69 66 64 61 59 56 52
34 34 34 35 35 35 35 35 35 36 37 37 38 39 40 41 42 44 46 48 51 54 57 60 63 66 69 72 74 75 76 77 76 75 72 70 67 65 62 59 57 53 50 47
34 34 34 34 34 34 35 35 36 36 37 38 39 40 41 43 45 47 49 52 55 58 61 64 67 70 73 74 75 75 76 75 73 70 67 64 63 61 58 54 51 48 46 44
32 33 33 34 34 35 35 35 36 37 38 39 40 42 43 45 48 51 53 56 59 62 65 68 71 73 74 74 74 74 73 71 67 64 62 60 59 56 53 50 47 44 42 39
32 32 32 33 33 34 35 36 37 38 39 41 42 45 47 49 52 54 57 60 64 67 69 70 72 72 73 73 73 71 68 64 62 60 59 57 55 52 48 45 42 39 37 34
31 31 32 32 33 34 36 37 38 40 41 43 45 48 51 53 56 59 62 65 67 69 70 70 71 71 71 70 68 65 62 60 58 57 55 54 51 47 43 40 37 35 32 29
30 31 32 33 34 35 37 38 39 41 43 46 49 52 55 58 61 63 66 67 68 68 68 69 69 68 67 65 62 59 57 56 54 52 51 48 45 41 37 35 33 31 28 26
Wind_Direction
241 240 240 241 242 243 246 250 253 253 253 254 256 257 259 263 266 267 269 271 273 275 277 279 280 282 283 284 286 287 288 289 290 292 293 293 294 294 294 295 295 295 296 296
241 242 243 243 242 243 246 249 253 253 253 255 256 258 262 265 268 270 272 274 275 277 279 280 281 282 284 285 286 287 289 289 291 292 293 293 294 294 295 295 296 297 297 298
241 242 244 244 243 246 249 252 254 256 256 254 255 260 264 267 269 271 274 276 278 280 281 281 282 283 284 286 287 288 289 290 291 292 293 293 294 295 295 296 297 298 298 299
241 242 245 249 247 248 251 252 254 256 256 255 258 261 264 267 270 272 274 276 278 280 281 282 283 284 286 287 288 289 289 290 291 292 293 293 294 295 296 296 297 299 300 301
242 244 248 249 250 250 252 252 255 258 259 259 261 262 265 268 270 273 275 277 278 280 281 282 284 285 286 287 288 289 290 291 292 292 293 294 295 296 296 297 299 300 301 302
243 246 249 251 252 253 254 254 256 259 260 261 262 264 267 269 271 274 276 277 279 280 281 282 283 285 286 288 289 290 291 291 292 292 293 294 295 296 297 298 300 301 302 303
246 249 251 253 254 255 256 259 258 257 259 261 264 267 269 271 273 275 277 278 279 280 281 282 283 285 287 288 289 290 291 291 292 293 295 296 296 297 298 300 301 302 303 304
245 248 251 256 258 258 259 258 258 259 261 263 266 269 271 273 274 276 277 278 280 281 282 283 285 286 288 289 290 291 292 292 294 295 295 296 297 298 300 301 302 303 304 305
246 251 254 253 256 258 258 259 261 262 264 266 268 270 272 274 275 276 278 279 281 282 283 285 286 288 289 290 291 292 293 293 295 296 296 297 299 300 301 302 303 304 305 306
244 248 250 252 254 257 260 262 264 265 267 268 270 272 273 275 276 278 279 281 282 283 285 287 288 289 290 291 292 293 294 295 296 296 297 299 300 301 303 304 305 306 306 307
246 248 250 252 255 258 261 263 264 266 268 270 271 273 275 277 279 280 282 283 284 286 287 287 289 290 291 292 293 294 295 296 297 298 299 300 301 303 304 305 306 307 307 308
248 249 250 252 255 258 261 263 264 266 268 271 273 275 277 279 281 282 284 285 286 287 288 289 290 291 292 293 294 295 296 297 298 299 300 301 302 304 305 307 308 308 309 309
247 248 251 253 255 258 260 263 265 267 270 272 275 277 279 281 283 284 285 287 288 289 290 291 291 292 293 294 296 296 297 298 299 300 301 303 304 305 306 307 308 309 309 309
247 249 251 254 256 258 260 263 265 268 271 274 276 278 280 282 283 285 287 288 289 290 290 291 292 293 294 296 297 298 299 300 301 302 303 304 305 306 307 308 308 308 309 309
248 250 252 254 257 260 262 264 267 270 272 274 277 279 281 283 284 285 287 288 289 289 290 291 292 294 295 297 298 299 300 301 302 303 304 305 306 307 308 308 309 309 309 309
247 250 254 257 260 262 264 266 268 271 273 275 277 279 281 283 284 286 287 288 288 289 290 292 293 295 296 297 298 299 301 302 303 304 305 306 307 308 308 309 309 309 310 310
248 252 256 259 262 264 266 268 270 271 273 275 278 280 281 283 284 286 287 288 289 290 291 293 294 295 297 298 299 301 302 303 304 305 306 307 308 308 308 309 309 309 310 310
251 254 257 260 264 266 268 270 272 273 275 277 279 280 281 283 285 286 287 288 289 291 292 294 295 296 298 299 300 302 303 304 305 306 307 308 308 308 308 309 309 309 309 309
253 255 258 262 265 267 270 271 273 275 276 277 279 280 282 283 285 286 287 288 290 291 293 295 296 298 299 300 302 303 304 305 306 307 308 308 308 308 309 309 309 309 309 309
253 256 259 262 265 267 269 271 273 274 276 277 279 281 282 284 285 287 288 290 291 293 295 296 298 299 300 301 303 304 305 306 307 307 308 308 308 308 309 308 308 308 308 307
256 258 260 262 264 266 269 271 273 274 276 278 280 282 283 285 286 288 290 291 293 295 296 298 299 300 302 303 304 305 305 306 307 308 308 308 308 308 308 308 308 308 307 307
257 259 261 263 265 268 269 271 273 275 277 279 281 282 284 286 288 289 291 293 294 296 298 300 301 302 303 304 305 305 306 307 307 308 308 308 308 308 308 308 308 307 307 306
258 260 261 264 266 269 271 272 274 276 278 280 282 284 286 288 289 291 293 295 296 298 300 301 302 303 304 305 305 306 306 307 307 308 308 308 309 308 308 308 308 307 306 305
259 261 263 265 267 269 270 272 275 277 279 281 283 285 287 289 291 293 295 297 298 300 301 303 304 304 305 305 305 306 307 307 307 307 308 308 309 309 308 308 307 307 306 305
259 261 263 265 266 268 271 273 276 278 280 283 286 288 290 292 294 295 297 298 300 301 303 303 304 304 305 305 306 307 307 307 307 307 308 308 308 308 307 307 307 307 307 305
260 262 264 266 268 271 273 275 278 281 284 286 289 291 293 294 296 297 299 300 301 303 303 304 304 305 305 306 307 307 306 306 307 307 308 308 308 307 307 306 306 306 306 304
261 264 266 269 271 274 276 279 282 285 287 289 291 293 295 296 298 299 300 302 302 303 304 304 305 305 306 306 307 306 306 306 307 308 308 309 308 307 306 305 305 305 304 303
Height
5687 5690 5692 5695 5697 5699 5700 5703 5706 5709 5711 5713 5712 5712 5712 5713 5713 5714 5714 5714 5713 5712 5711 5709 5707 5704 5701 5698 5695 5692 5689 5685 5681 5677 5672 5668 5663 5658 5653 5648 5643 5638 5632 5627
5678 5681 5683 5685 5688 5690 5693 5695 5697 5700 5703 5705 5703 5703 5704 5704 5704 5705 5704 5704 5703 5702 5701 5699 5696 5694 5691 5687 5684 5681 5677 5673 5669 5665 5660 5655 5650 5645 5640 5635 5630 5624 5618 5612
5670 5673 5673 5675 5681 5683 5685 5688 5690 5691 5696 5695 5694 5695 5695 5695 5695 5695 5695 5694 5693 5691 5690 5688 5685 5683 5680 5676 5673 5669 5665 5661 5657 5652 5647 5642 5637 5632 5627 5622 5616 5610 5604 5598
5661 5664 5663 5672 5674 5675 5677 5679 5681 5682 5685 5685 5686 5686 5686 5686 5686 5685 5684 5683 5682 5680 5679 5676 5674 5671 5668 5665 5661 5657 5653 5649 5644 5640 5635 5630 5624 5619 5613 5608 5602 5596 5590 5583
5651 5653 5656 5662 5665 5668 5669 5671 5673 5673 5675 5676 5676 5676 5677 5677 5676 5675 5674 5672 5671 5669 5667 5665 5662 5659 5656 5653 5649 5645 5641 5636 5632 5627 5622 5617 5611 5606 5600 5594 5588 5582 5575 5567
5642 5644 5647 5655 5658 5659 5660 5661 5666 5664 5665 5665 5665 5666 5668 5666 5665 5664 5663 5661 5659 5657 5655 5653 5650 5647 5644 5641 5637 5632 5628 5623 5619 5614 5609 5603 5598 5592 5586 5580 5574 5567 5560 5552
5633 5635 5639 5645 5648 5650 5652 5655 5656 5654 5654 5655 5655 5656 5656 5655 5654 5653 5651 5650 5648 5646 5643 5641 5638 5635 5632 5628 5624 5620 5615 5611 5606 5600 5595 5590 5584 5578 5572 5566 5559 5553 5545 5537
5624 5626 5633 5638 5638 5640 5642 5643 5643 5644 5644 5645 5645 5644 5644 5643 5642 5641 5640 5638 5636 5634 5632 5629 5626 5623 5620 5616 5612 5607 5603 5598 5592 5587 5581 5576 5570 5564 5557 5550 5544 5536 5529 5521
5617 5621 5625 5627 5628 5629 5630 5632 5632 5633 5634 5634 5634 5634 5633 5632 5631 5630 5628 5627 5624 5622 5620 5617 5614 5611 5607 5603 5599 5594 5589 5584 5579 5574 5568 5562 5556 5549 5543 5535 5527 5519 5511 5503
5607 5610 5614 5616 5617 5619 5620 5621 5622 5622 5623 5623 5623 5623 5622 5621 5620 5619 5617 5615 5613 5610 5608 5605 5601 5598 5594 5590 5585 5581 5576 5571 5566 5560 5554 5548 5541 5534 5527 5519 5510 5501 5492 5483
5597 5602 5604 5606 5608 5609 5610 5610 5611 5612 5612 5612 5612 5612 5611 5610 5608 5607 5605 5603 5601 5598 5595 5592 5588 5584 5580 5576 5572 5568 5563 5558 5552 5546 5540 5534 5527 5519 5511 5503 5491 5482 5472 5462
5590 5594 5595 5597 5598 5599 5600 5601 5601 5602 5602 5602 5601 5601 5600 5598 5597 5595 5593 5591 5588 5585 5582 5579 5575 5571 5567 5563 5559 5554 5549 5544 5538 5532 5526 5519 5512 5505 5496 5485 5475 5462 5450 5439
5580 5582 5584 5586 5588 5589 5590 5590 5591 5591 5591 5591 5590 5589 5588 5586 5585 5583 5580 5578 5575 5572 5569 5566 5562 5558 5554 5550 5545 5541 5535 5530 5524 5518 5511 5503 5496 5488 5481 5472 5459 5446 5432 5420
5569 5572 5574 5576 5578 5579 5579 5580 5580 5580 5580 5580 5579 5578 5576 5575 5573 5571 5568 5566 5563 5560 5557 5553 5549 5545 5541 5537 5532 5527 5521 5516 5509 5503 5495 5487 5478 5469 5459 5451 5443 5433 5418 5403
5560 5562 5564 5566 5567 5568 5569 5569 5570 5570 5569 5568 5568 5566 5565 5563 5561 5559 5556 5553 5550 5547 5544 5540 5537 5532 5528 5524 5519 5513 5507 5501 5494 5487 5478 5469 5460 5450 5440 5429 5420 5410 5401 5389
5550 5551 5554 5556 5557 5558 5558 5559 5559 5559 5558 5557 5556 5555 5553 5551 5549 5547 5544 5541 5538 5535 5532 5528 5524 5520 5515 5510 5505 5499 5493 5485 5478 5470 5461 5452 5441 5431 5420 5410 5399 5389 5379 5369
5540 5543 5544 5546 5547 5547 5548 5548 5548 5548 5547 5546 5545 5543 5542 5540 5537 5535 5532 5529 5526 5523 5519 5515 5511 5507 5501 5496 5490 5484 5477 5470 5461 5452 5442 5432 5422 5411 5401 5390 5380 5370 5360 5350
5531 5533 5535 5536 5536 5537 5537 5537 5537 5536 5536 5535 5533 5532 5530 5528 5526 5523 5520 5517 5514 5510 5506 5502 5498 5493 5487 5481 5475 5468 5461 5452 5443 5434 5423 5413 5402 5392 5381 5371 5360 5351 5342 5334
5521 5523 5525 5525 5526 5527 5527 5527 5526 5525 5525 5524 5522 5521 5519 5517 5514 5512 5509 5505 5502 5498 5494 5489 5484 5478 5472 5465 5458 5451 5443 5434 5424 5414 5404 5394 5383 5373 5362 5352 5342 5333 5325 5317
5512 5513 5514 5515 5516 5516 5516 5516 5515 5515 5514 5512 5511 5509 5507 5505 5502 5500 5496 5493 5488 5484 5480 5475 5469 5463 5457 5449 5441 5433 5424 5414 5405 5395 5384 5374 5364 5354 5344 5335 5326 5317 5310 5302
5502 5503 5504 5505 5506 5506 5506 5505 5504 5504 5503 5501 5500 5498 5496 5493 5490 5487 5484 5480 5475 5470 5466 5460 5454 5447 5440 5432 5423 5414 5404 5395 5385 5375 5365 5355 5345 5336 5327 5318 5310 5302 5294 5287
5492 5493 5494 5495 5495 5495 5495 5494 5494 5493 5492 5490 5488 5486 5484 5481 5478 5474 5470 5466 5462 5456 5451 5444 5437 5429 5421 5413 5404 5395 5385 5375 5365 5355 5346 5336 5327 5319 5310 5302 5295 5287 5280 5274
5482 5483 5484 5484 5484 5484 5484 5483 5483 5482 5480 5478 5476 5474 5471 5468 5465 5461 5457 5452 5446 5441 5434 5427 5419 5411 5402 5393 5384 5374 5365 5355 5346 5337 5328 5319 5311 5302 5294 5287 5280 5273 5267 5261
5472 5473 5473 5474 5474 5474 5473 5472 5471 5470 5468 5466 5464 5461 5458 5455 5451 5446 5441 5436 5430 5424 5417 5408 5400 5391 5382 5373 5364 5355 5346 5337 5328 5319 5311 5303 5295 5287 5280 5273 5267 5261 5255 5250
5462 5463 5463 5463 5463 5463 5462 5461 5460 5458 5456 5454 5451 5448 5444 5440 5437 5432 5426 5420 5413 5405 5398 5389 5380 5371 5363 5354 5345 5336 5327 5319 5311 5303 5296 5288 5281 5274 5267 5261 5255 5250 5245 5240
5452 5453 5453 5453 5453 5452 5451 5450 5449 5447 5444 5442 5438 5434 5430 5425 5420 5415 5409 5402 5394 5386 5378 5370 5361 5353 5344 5335 5327 5318 5310 5303 5295 5288 5280 5273 5267 5260 5255 5249 5245 5240 5235 5231
5443 5443 5443 5443 5442 5441 5440 5439 5437 5434 5431 5428 5425 5420 5415 5410 5404 5397 5391 5383 5376 5368 5360 5351 5343 5334 5326 5317 5310 5302 5295 5287 5280 5273 5267 5260 5254 5248 5243 5239 5235 5231 5227 5224